N8HKU-5 Weather Reports


Display with metric or nautical units.
time (UTC)temp
F
wind
direction
speed
MPH
gust
MPH
rain 1hr
in
rain 24hr
in
rain mn
in
humidity
%
barometer
mb
20260506201236 55 278 1.0 8.0 0.00 0.00 0.00 45 1010.1
20260506200234 55 277 1.0 7.0 0.00 0.00 0.00 45 1010.2
20260506195235 54 256 1.0 11.0 0.00 0.00 0.00 46 1010.1
20260506194236 54 256 0.0 2.0 0.00 0.00 0.00 48 1010.1
20260506193234 54 0 0.0 0.0 0.00 0.00 0.00 48 1010.2
20260506192234 54 0 0.0 0.0 0.00 0.00 0.00 46 1010.6
20260506191234 53 204 0.0 2.0 0.00 0.00 0.00 49 1010.5
20260506190234 54 264 3.0 8.0 0.00 0.00 0.00 45 1010.4
20260506185234 55 292 0.0 5.0 0.00 0.00 0.00 45 1010.3
20260506184234 54 302 0.0 1.0 0.00 0.00 0.00 48 1010.3
20260506183234 53 0 0.0 0.0 0.00 0.00 0.00 48 1010.2
20260506182234 53 58 0.0 1.0 0.00 0.00 0.00 50 1010.1
20260506181234 52 286 0.0 6.0 0.00 0.00 0.00 51 1010.3
20260506180234 52 266 0.0 7.0 0.00 0.00 0.00 48 1010.3
20260506175234 52 280 1.0 8.0 0.00 0.00 0.00 47 1010.4
20260506174234 52 271 1.0 8.0 0.00 0.00 0.00 49 1010.5
20260506173235 51 268 1.0 7.0 0.00 0.00 0.00 49 1010.8
20260506172234 51 275 1.0 9.0 0.00 0.00 0.00 48 1010.8
20260506171234 51 275 1.0 9.0 0.00 0.00 0.00 45 1010.7
20260506170234 51 267 1.0 11.0 0.00 0.00 0.00 47 1010.6
20260506165234 51 285 1.0 12.0 0.00 0.01 0.00 50 1010.5
20260506164234 51 286 1.0 6.0 0.00 0.02 0.00 50 1010.5
20260506163234 51 259 1.0 12.0 0.00 0.02 0.00 49 1010.5
20260506162234 52 268 1.0 4.0 0.00 0.02 0.00 48 1010.3
20260506161234 52 274 2.0 10.0 0.00 0.02 0.00 47 1010.4
20260506160234 52 0 0.0 0.0 0.00 0.02 0.00 48 1010.1
20260506155233 52 276 1.0 10.0 0.00 0.02 0.00 47 1010.1
20260506154234 52 277 1.0 8.0 0.00 0.02 0.00 46 1010.0
20260506153234 53 323 0.0 5.0 0.00 0.02 0.00 46 1010.0
20260506152234 52 269 1.0 7.0 0.00 0.02 0.00 48 1010.1
20260506151233 52 274 1.0 8.0 0.00 0.02 0.00 47 1009.8
20260506150234 52 282 1.0 11.0 0.00 0.02 0.00 45 1009.6
20260506145234 53 299 1.0 9.0 0.00 0.02 0.00 47 1009.6
20260506144233 53 263 0.0 4.0 0.00 0.02 0.00 48 1009.4
20260506143234 52 294 0.0 7.0 0.00 0.02 0.00 47 1009.4
20260506142234 52 257 0.0 5.0 0.00 0.02 0.00 48 1009.4
20260506141235 51 0 0.0 0.0 0.00 0.02 0.00 48 1009.5
20260506140234 51 272 0.0 4.0 0.00 0.02 0.00 50 1009.4
20260506135234 51 263 0.0 1.0 0.00 0.02 0.00 53 1009.1
20260506134234 50 281 0.0 1.0 0.00 0.02 0.00 52 1009.2
20260506133234 50 0 0.0 1.0 0.00 0.02 0.00 57 1009.2
20260506132234 49 0 0.0 0.0 0.00 0.02 0.00 58 1009.0
20260506131234 48 0 0.0 0.0 0.00 0.02 0.00 61 1008.9
20260506130235 48 0 0.0 0.0 0.00 0.02 0.00 63 1008.8
20260506125234 48 0 0.0 1.0 0.00 0.02 0.00 61 1008.7
20260506124234 47 0 0.0 0.0 0.00 0.02 0.00 64 1008.7
20260506123234 47 0 0.0 0.0 0.00 0.02 0.00 64 1008.5
20260506122234 46 0 0.0 0.0 0.00 0.02 0.00 66 1008.3
20260506121234 45 0 0.0 0.0 0.00 0.02 0.00 68 1008.1
20260506120234 45 0 0.0 0.0 0.00 0.02 0.00 66 1008.1
20260506115234 45 0 0.0 0.0 0.00 0.02 0.00 66 1008.1
20260506114233 45 0 0.0 0.0 0.00 0.02 0.00 66 1007.9
20260506113233 44 0 0.0 0.0 0.00 0.02 0.00 66 1007.9
20260506112233 44 0 0.0 0.0 0.00 0.02 0.00 66 1007.8
20260506111233 44 0 0.0 0.0 0.00 0.02 0.00 66 1007.7
20260506110233 44 0 0.0 0.0 0.00 0.02 0.00 65 1007.4
20260506105234 45 0 0.0 0.0 0.00 0.02 0.00 65 1007.2
20260506104235 45 0 0.0 0.0 0.00 0.02 0.00 64 1007.2
20260506103237 46 0 0.0 0.0 0.00 0.02 0.00 64 1007.0
20260506102233 46 0 0.0 0.0 0.00 0.02 0.00 65 1006.9
20260506101234 46 0 0.0 0.0 0.00 0.02 0.00 64 1006.9
20260506100234 46 0 0.0 1.0 0.00 0.02 0.00 65 1006.7
20260506095234 46 0 0.0 0.0 0.00 0.02 0.00 65 1006.7
20260506094234 46 0 0.0 0.0 0.00 0.02 0.00 64 1006.8
20260506093234 46 0 0.0 0.0 0.00 0.02 0.00 64 1006.7
20260506092233 46 0 0.0 0.0 0.00 0.02 0.00 65 1006.3
20260506091233 46 0 0.0 0.0 0.00 0.02 0.00 64 1006.6
20260506090234 46 0 0.0 0.0 0.00 0.02 0.00 64 1006.5
20260506085235 46 0 0.0 0.0 0.00 0.02 0.00 64 1006.2
20260506084236 46 0 0.0 0.0 0.00 0.02 0.00 63 1006.3
20260506083235 46 260 0.0 1.0 0.00 0.02 0.00 64 1006.4
20260506082233 47 0 0.0 0.0 0.00 0.02 0.00 64 1006.3
20260506081234 47 0 0.0 0.0 0.00 0.02 0.00 64 1006.2
20260506080233 47 0 0.0 0.0 0.00 0.02 0.00 64 1006.1
20260506073234 46 0 0.0 0.0 0.00 0.02 0.00 68 1006.4
20260506072234 46 0 0.0 0.0 0.00 0.02 0.00 69 1006.3
20260506071234 46 0 0.0 0.0 0.00 0.02 0.00 69 1006.3
20260506070235 46 0 0.0 0.0 0.00 0.02 0.00 71 1006.1
20260506062233 46 0 0.0 0.0 0.00 0.02 0.00 75 1006.7
20260506061234 46 0 0.0 0.0 0.00 0.02 0.00 77 1006.7
20260506060234 46 0 0.0 0.0 0.00 0.02 0.00 81 1006.7
20260506051233 47 0 0.0 0.0 0.00 0.03 0.00 74 1006.6
20260506050234 47 0 0.0 0.0 0.00 0.05 0.00 71 1006.7
20260506044234 47 0 0.0 0.0 0.00 0.11 0.00 67 1006.7
20260506043234 47 0 0.0 0.0 0.00 0.12 0.00 66 1006.7
20260506042234 47 0 0.0 0.0 0.00 0.14 0.00 68 1006.7
20260506041234 47 0 0.0 0.0 0.00 0.17 0.00 70 1006.7
20260506040233 47 0 0.0 0.0 0.00 0.20 0.00 69 1006.6
20260506035233 46 0 0.0 0.0 0.00 0.26 0.21 76 1006.4
20260506034233 46 0 0.0 0.0 0.00 0.26 0.21 80 1006.2
20260506033234 46 0 0.0 0.0 0.00 0.26 0.21 77 1006.1
20260506032234 46 0 0.0 0.0 0.00 0.26 0.21 79 1006.2
20260506031234 46 0 0.0 0.0 0.00 0.26 0.21 79 1006.5
20260506030233 46 0 0.0 0.0 0.00 0.26 0.21 76 1006.5
20260506025233 46 0 0.0 0.0 0.00 0.26 0.21 77 1006.6
20260506024234 47 0 0.0 0.0 0.00 0.26 0.21 78 1006.6
20260506023233 47 0 0.0 0.0 0.00 0.26 0.21 77 1006.7
20260506022233 47 0 0.0 0.0 0.00 0.26 0.21 75 1006.4
20260506021233 47 0 0.0 0.0 0.00 0.26 0.21 74 1006.4
20260506020234 48 0 0.0 0.0 0.00 0.26 0.21 71 1006.4
20260506015234 48 0 0.0 0.0 0.00 0.26 0.21 68 1006.3
20260506014233 49 0 0.0 0.0 0.00 0.26 0.21 72 1006.1
20260506013234 49 0 0.0 0.0 0.00 0.26 0.21 66 1006.0
20260506012233 50 256 0.0 3.0 0.00 0.26 0.21 60 1005.9
20260506011234 51 0 0.0 0.0 0.00 0.26 0.21 63 1005.8
20260506010234 51 0 0.0 0.0 0.00 0.26 0.21 60 1005.9
20260506005234 51 0 0.0 0.0 0.00 0.26 0.21 59 1005.9
20260506004237 51 0 0.0 0.0 0.00 0.26 0.21 60 1005.9
20260506003233 52 0 0.0 0.0 0.00 0.26 0.21 60 1006.0
20260506002234 52 0 0.0 0.0 0.00 0.26 0.21 57 1005.9
20260506001235 52 0 0.0 0.0 0.00 0.26 0.21 54 1005.9
20260506000233 52 0 0.0 0.0 0.00 0.26 0.21 54 1005.8
20260505235234 52 254 0.0 6.0 0.00 0.27 0.21 52 1005.8
20260505234233 53 0 0.0 0.0 0.00 0.28 0.21 56 1005.4
20260505233234 53 0 0.0 0.0 0.00 0.28 0.21 54 1005.2
20260505232235 53 0 0.0 0.0 0.00 0.28 0.21 55 1005.1
20260505231233 53 0 0.0 0.0 0.00 0.29 0.21 58 1005.2
20260505230233 54 0 0.0 0.0 0.00 0.32 0.21 58 1005.2
20260505225234 54 0 0.0 0.0 0.00 0.34 0.21 60 1005.2
20260505224233 54 0 0.0 0.0 0.00 0.34 0.21 63 1005.2
20260505223233 54 0 0.0 0.0 0.00 0.34 0.21 63 1005.3
20260505222234 54 0 0.0 0.0 0.00 0.34 0.21 65 1005.3
20260505221233 54 0 0.0 0.0 0.00 0.34 0.21 68 1005.2
20260505220233 54 0 0.0 0.0 0.00 0.34 0.21 68 1005.2
20260505215234 54 0 0.0 0.0 0.00 0.34 0.21 68 1005.3
20260505214234 54 270 0.0 5.0 0.00 0.34 0.21 68 1005.3
20260505213234 54 251 0.0 8.0 0.00 0.34 0.21 69 1005.3
20260505212234 54 0 0.0 0.0 0.00 0.34 0.21 70 1005.2
20260505211233 54 0 0.0 0.0 0.00 0.34 0.21 70 1005.2
20260505210233 54 0 0.0 0.0 0.00 0.34 0.21 71 1005.3
20260505205233 54 0 0.0 3.0 0.00 0.34 0.21 71 1005.4
20260505204233 54 0 0.0 0.0 0.00 0.34 0.21 70 1005.5
20260505203233 54 277 0.0 3.0 0.00 0.34 0.21 69 1005.5
20260505202233 54 0 0.0 0.0 0.00 0.34 0.21 68 1005.5